This is the latest recevied weather packets stored in our database for station/object BM1CKC-10. If no packets are shown the sender has not sent any weather packets the latest 10 day(s).
| Time | Temp. | Humidity | Pressure | Rain* | Wind** | Luminosity | Snow |
|---|---|---|---|---|---|---|---|
| 1777922999 | 25° C | 63% | 1008.4 hPa | - | - | - | - |
| 1777915798 | 25.56° C | 60% | 1009.7 hPa | - | - | - | - |
| 1777913399 | 25.56° C | 59% | 1010.4 hPa | - | - | - | - |
| 1777908599 | 25.56° C | 57% | 1011.4 hPa | - | - | - | - |
| 1777907399 | 25.56° C | 55% | 1011.7 hPa | - | - | - | - |
| 1777904998 | 25.56° C | 48% | 1012.3 hPa | - | - | - | - |
| 1777897798 | 27.78° C | 52% | 1013.2 hPa | - | - | - | - |
| 1777896607 | 27.78° C | 52% | 1013.2 hPa | - | - | - | - |
| 1777895399 | 27.78° C | 52% | 1013.3 hPa | - | - | - | - |
| 1777894198 | 27.78° C | 52% | 1013 hPa | - | - | - | - |
| 1777892998 | 27.78° C | 51% | 1012.7 hPa | - | - | - | - |
| 1777889398 | 27.78° C | 47% | 1012 hPa | - | - | - | - |
| 1777886998 | 27.78° C | 47% | 1011.2 hPa | - | - | - | - |
| 1777885798 | 27.78° C | 49% | 1011.1 hPa | - | - | - | - |
| 1777884598 | 27.78° C | 49% | 1011.1 hPa | - | - | - | - |
| 1777883398 | 27.78° C | 49% | 1010.8 hPa | - | - | - | - |
| 1777882198 | 27.78° C | 51% | 1010.7 hPa | - | - | - | - |
| 1777880998 | 27.78° C | 51% | 1010.7 hPa | - | - | - | - |
| 1777879798 | 27.78° C | 53% | 1010.7 hPa | - | - | - | - |
| 1777878598 | 27.78° C | 54% | 1010.6 hPa | - | - | - | - |
| 1777877398 | 27.78° C | 54% | 1010.7 hPa | - | - | - | - |
| 1777876198 | 27.78° C | 54% | 1010.9 hPa | - | - | - | - |
| 1777875004 | 27.78° C | 55% | 1011.1 hPa | - | - | - | - |
| 1777873798 | 27.78° C | 56% | 1011.1 hPa | - | - | - | - |
| 1777872607 | 27.78° C | 56% | 1011.3 hPa | - | - | - | - |
* Rain since midnight (hover to see other rain measurements)
** Current wind speed in m/s (hover to see current wind gust speed)